Home > Weather > Reno > Past weeks

Flag for USA Past Weather in Reno, Nevada, USA — Yesterday and Last 2 Weeks

Now
75 °F

Clear.


Feels Like: 77 °F
Forecast: 72 / 99 °F
Wind: 7 mph from Southwest

Location: Reno Tahoe International Airport

Current Time: Jul 30, 2016 at 2:23:01 AM

Latest Report: Jul 30, 2016 at 1:55 AM


Visibility: 10 mi

Pressure: 29.81 "Hg (25.46 "Hg at 1372m altitude)

Humidity: 33%

Dew Point: 44 °F

Location of RenoLocation

Past Weather in Reno — Graph

°F

Reno Temperature Yesterday

Maximum temperature yesterday: 102 °F (at 4:55 PM)
Minimum temperature yesterday: 71 °F (at 6:55 AM)
Average temperature yesterday: 87 °F

High & Low Weather Summary for the Past Weeks

 TemperatureHumidityPressure
High102 °F (Jul 27, 4:55 PM)47% (Jul 21, 5:55 AM)30.10 "Hg (Jul 21, 5:55 AM)
Low54 °F (Jul 19, 4:55 AM)5% (Jul 24, 2:55 PM)29.74 "Hg (Jul 29, 3:55 PM)
Average78 °F20%29.92 "Hg
* Reported Jul 15 12:55 AM — Jul 30 12:55 AM, Reno, Weather by CustomWeather, © 2016

Note: Actual official high and low records may vary slightly from our data, if they occured in-between our weather recording intervals... More about our weather records

Advertising

Reno Weather History for the Previous 24 Hours

Scroll right to see more
 ConditionsComfort  
Time TempWeatherWind HumidityBarometerVisibility
12:55 AM
Sat, Jul 30
80 °FClear.5 mph26%29.80 "Hg10 mi
11:55 PM
Fri, Jul 29
82 °FClear.5 mph23%29.80 "Hg10 mi
10:55 PM85 °FClear.10 mph21%29.80 "Hg10 mi
9:55 PM87 °FPassing clouds.3 mph21%29.81 "Hg10 mi
8:55 PM90 °FPassing clouds.8 mph19%29.80 "Hg10 mi
7:55 PM93 °FScattered clouds.14 mph17%29.78 "Hg10 mi
6:55 PM96 °FScattered clouds.20 mph14%29.75 "Hg10 mi
5:55 PM99 °FScattered clouds.17 mph13%29.75 "Hg10 mi
4:55 PM102 °FBroken clouds.17 mph12%29.75 "Hg10 mi
3:55 PM101 °FBroken clouds.20 mph15%29.74 "Hg10 mi
2:55 PM101 °FScattered clouds.3 mph13%29.76 "Hg10 mi
1:55 PM101 °FScattered clouds.7 mph13%29.79 "Hg10 mi
12:55 PM97 °FPassing clouds.5 mph14%29.82 "Hg10 mi
11:55 AM95 °FPassing clouds.6 mph15%29.84 "Hg10 mi
10:55 AM92 °FPassing clouds.3 mph21%29.87 "Hg10 mi
9:55 AM84 °FSunny.No wind29%29.88 "Hg10 mi
8:55 AM81 °FSunny.No wind32%29.89 "Hg10 mi
7:55 AM77 °FSunny.3 mph37%29.90 "Hg10 mi
6:55 AM71 °FClear.3 mph44%29.90 "Hg10 mi
5:55 AM73 °FPassing clouds.8 mph41%29.88 "Hg10 mi
4:55 AM73 °FClear.3 mph43%29.87 "Hg10 mi
3:55 AM75 °FClear.5 mph40%29.87 "Hg10 mi
2:55 AM76 °FClear.3 mph35%29.87 "Hg10 mi
Weather by CustomWeather, © 2016

See weather overviewHow to use our weather pages